Time,TemperatureF,DewpointF,PressureIn,WindDirection,WindDirectionDegrees,WindSpeedMPH,WindSpeedGustMPH,Humidity,HourlyPrecipIn,Conditions,Clouds,dailyrainin,SoftwareType,DateUTC
2013-06-18 00:02:00,59.6,49.0,30.18,SSW,211,2.0,-999.0,67,-99.99,,,0.00,weatherlink.com 1.10,2013-06-18 06:02:00,
2013-06-18 00:17:00,59.1,48.0,30.18,WSW,255,1.0,-999.0,68,-99.99,,,0.00,weatherlink.com 1.10,2013-06-18 06:17:00,
2013-06-18 00:32:00,58.6,49.0,30.18,WSW,250,0.0,-999.0,70,-99.99,,,0.00,weatherlink.com 1.10,2013-06-18 06:32:00,
2013-06-18 00:47:00,58.5,48.0,30.19,West,280,3.0,-999.0,69,-99.99,,,0.00,weatherlink.com 1.10,2013-06-18 06:47:00,
2013-06-18 01:02:00,58.4,48.0,30.18,NE,51,0.0,-999.0,69,-99.99,,,0.00,weatherlink.com 1.10,2013-06-18 07:02:00,
2013-06-18 01:17:00,58.0,48.0,30.19,NNW,329,2.0,-999.0,69,-99.99,,,0.00,weatherlink.com 1.10,2013-06-18 07:17:00,
2013-06-18 01:32:00,57.9,49.0,30.19,NNW,345,4.0,-999.0,71,-99.99,,,0.00,weatherlink.com 1.10,2013-06-18 07:32:00,
2013-06-18 01:47:00,58.0,50.0,30.20,NNE,15,5.0,-999.0,75,-99.99,,,0.00,weatherlink.com 1.10,2013-06-18 07:47:00,
2013-06-18 02:02:00,58.1,51.0,30.20,North,360,3.0,-999.0,78,-99.99,,,0.00,weatherlink.com 1.10,2013-06-18 08:02:00,
2013-06-18 02:17:00,57.5,52.0,30.20,North,5,5.0,-999.0,81,-99.99,,,0.00,weatherlink.com 1.10,2013-06-18 08:17:00,
2013-06-18 02:32:00,57.2,51.0,30.20,NNE,22,2.0,-999.0,81,-99.99,,,0.00,weatherlink.com 1.10,2013-06-18 08:32:00,
2013-06-18 02:47:00,56.2,51.0,30.20,NNE,32,0.0,-999.0,82,-99.99,,,0.00,weatherlink.com 1.10,2013-06-18 08:47:00,
2013-06-18 03:02:00,55.7,50.0,30.21,WSW,245,3.0,-999.0,81,-99.99,,,0.00,weatherlink.com 1.10,2013-06-18 09:02:00,
2013-06-18 03:17:00,55.0,50.0,30.20,WSW,243,1.0,-999.0,83,-99.99,,,0.00,weatherlink.com 1.10,2013-06-18 09:17:00,
2013-06-18 03:32:00,55.0,50.0,30.20,West,270,0.0,-999.0,84,-99.99,,,0.00,weatherlink.com 1.10,2013-06-18 09:32:00,
2013-06-18 03:47:00,54.0,49.0,30.19,WNW,300,5.0,-999.0,84,-99.99,,,0.00,weatherlink.com 1.10,2013-06-18 09:47:00,
2013-06-18 04:02:00,53.2,49.0,30.19,NNW,330,3.0,-999.0,86,-99.99,,,0.00,weatherlink.com 1.10,2013-06-18 10:02:00,
2013-06-18 04:17:00,53.4,49.0,30.19,WNW,296,3.0,-999.0,86,-99.99,,,0.00,weatherlink.com 1.10,2013-06-18 10:17:00,
2013-06-18 04:32:00,53.7,49.0,30.19,West,278,1.0,-999.0,85,-99.99,,,0.00,weatherlink.com 1.10,2013-06-18 10:32:00,
2013-06-18 04:47:00,53.6,49.0,30.19,West,269,5.0,-999.0,84,-99.99,,,0.00,weatherlink.com 1.10,2013-06-18 10:47:00,
2013-06-18 05:02:00,53.4,48.0,30.19,West,271,2.0,-999.0,83,-99.99,,,0.00,weatherlink.com 1.10,2013-06-18 11:02:00,
2013-06-18 05:17:00,53.3,48.0,30.20,West,277,0.0,-999.0,83,-99.99,,,0.00,weatherlink.com 1.10,2013-06-18 11:17:00,
2013-06-18 05:32:00,53.2,49.0,30.20,WNW,300,2.0,-999.0,84,-99.99,,,0.00,weatherlink.com 1.10,2013-06-18 11:32:00,
2013-06-18 05:47:00,52.7,48.0,30.20,WSW,258,1.0,-999.0,84,-99.99,,,0.00,weatherlink.com 1.10,2013-06-18 11:47:00,
2013-06-18 06:02:00,52.3,48.0,30.20,WSW,248,4.0,-999.0,84,-99.99,,,0.00,weatherlink.com 1.10,2013-06-18 12:02:00,
2013-06-18 06:17:00,52.9,48.0,30.20,WSW,247,4.0,-999.0,83,-99.99,,,0.00,weatherlink.com 1.10,2013-06-18 12:17:00,
2013-06-18 06:32:00,53.5,49.0,30.19,WSW,250,0.0,-999.0,84,-99.99,,,0.00,weatherlink.com 1.10,2013-06-18 12:32:00,
2013-06-18 06:47:00,54.7,50.0,30.19,WSW,251,0.0,-999.0,83,-99.99,,,0.00,weatherlink.com 1.10,2013-06-18 12:47:00,
2013-06-18 07:02:00,56.9,50.0,30.18,WSW,251,0.0,-999.0,79,-99.99,,,0.00,weatherlink.com 1.10,2013-06-18 13:02:00,
2013-06-18 07:17:00,59.2,52.0,30.19,South,175,2.0,-999.0,76,-99.99,,,0.00,weatherlink.com 1.10,2013-06-18 13:17:00,
2013-06-18 07:32:00,60.3,53.0,30.19,SSE,164,4.0,-999.0,76,-99.99,,,0.00,weatherlink.com 1.10,2013-06-18 13:32:00,
2013-06-18 07:47:00,60.8,53.0,30.18,SSE,155,3.0,-999.0,75,-99.99,,,0.00,weatherlink.com 1.10,2013-06-18 13:47:00,
2013-06-18 08:02:00,61.5,53.0,30.18,SE,131,3.0,-999.0,74,-99.99,,,0.00,weatherlink.com 1.10,2013-06-18 14:02:00,
2013-06-18 08:17:00,62.5,52.0,30.18,SE,130,0.0,-999.0,69,-99.99,,,0.00,weatherlink.com 1.10,2013-06-18 14:17:00,
2013-06-18 08:32:00,63.4,52.0,30.18,SE,144,2.0,-999.0,67,-99.99,,,0.00,weatherlink.com 1.10,2013-06-18 14:32:00,
2013-06-18 08:47:00,64.4,52.0,30.18,ESE,110,0.0,-999.0,65,-99.99,,,0.00,weatherlink.com 1.10,2013-06-18 14:47:00,
2013-06-18 09:02:00,65.0,52.0,30.18,ESE,107,4.0,-999.0,64,-99.99,,,0.00,weatherlink.com 1.10,2013-06-18 15:02:00,
2013-06-18 09:17:00,65.6,52.0,30.17,South,177,5.0,-999.0,62,-99.99,,,0.00,weatherlink.com 1.10,2013-06-18 15:17:00,
2013-06-18 09:32:00,66.4,51.0,30.16,South,169,3.0,-999.0,59,-99.99,,,0.00,weatherlink.com 1.10,2013-06-18 15:32:00,
2013-06-18 09:47:00,66.3,52.0,30.16,SSW,211,3.0,-999.0,60,-99.99,,,0.00,weatherlink.com 1.10,2013-06-18 15:47:00,
2013-06-18 10:02:00,66.7,53.0,30.15,SSE,161,1.0,-999.0,61,-99.99,,,0.00,weatherlink.com 1.10,2013-06-18 16:02:00,
2013-06-18 10:17:00,67.2,52.0,30.14,North,9,2.0,-999.0,59,-99.99,,,0.00,weatherlink.com 1.10,2013-06-18 16:17:00,
2013-06-18 10:32:00,69.4,53.0,30.14,ESE,120,2.0,-999.0,56,-99.99,,,0.00,weatherlink.com 1.10,2013-06-18 16:32:00,
2013-06-18 10:47:00,71.8,54.0,30.14,East,91,4.0,-999.0,53,-99.99,,,0.00,weatherlink.com 1.10,2013-06-18 16:47:00,
2013-06-18 11:02:00,73.1,53.0,30.13,East,91,6.0,-999.0,49,-99.99,,,0.00,weatherlink.com 1.10,2013-06-18 17:02:00,
2013-06-18 11:17:00,74.5,53.0,30.13,South,173,4.0,-999.0,47,-99.99,,,0.00,weatherlink.com 1.10,2013-06-18 17:17:00,
2013-06-18 11:32:00,73.1,53.0,30.13,South,169,4.0,-999.0,49,-99.99,,,0.00,weatherlink.com 1.10,2013-06-18 17:32:00,
2013-06-18 11:47:00,72.4,50.0,30.13,SSE,163,4.0,-999.0,46,-99.99,,,0.00,weatherlink.com 1.10,2013-06-18 17:47:00,
2013-06-18 12:02:00,74.0,54.0,30.13,SE,139,3.0,-999.0,49,-99.99,,,0.00,weatherlink.com 1.10,2013-06-18 18:02:00,
2013-06-18 12:17:00,74.0,54.0,30.13,SSE,155,7.0,-999.0,49,-99.99,,,0.00,weatherlink.com 1.10,2013-06-18 18:17:00,
2013-06-18 12:32:00,75.9,53.0,30.12,SSW,196,3.0,-999.0,45,-99.99,,,0.00,weatherlink.com 1.10,2013-06-18 18:32:00,
2013-06-18 12:47:00,76.6,53.0,30.12,South,180,7.0,-999.0,44,-99.99,,,0.00,weatherlink.com 1.10,2013-06-18 18:47:00,
2013-06-18 13:02:00,77.1,52.0,30.11,ESE,111,7.0,-999.0,41,-99.99,,,0.00,weatherlink.com 1.10,2013-06-18 19:02:00,
2013-06-18 13:17:00,76.8,51.0,30.11,NNE,17,3.0,-999.0,41,-99.99,,,0.00,weatherlink.com 1.10,2013-06-18 19:17:00,
2013-06-18 13:32:00,74.8,51.0,30.11,North,360,7.0,-999.0,44,-99.99,,,0.00,weatherlink.com 1.10,2013-06-18 19:32:00,
2013-06-18 13:47:00,75.3,53.0,30.11,North,5,4.0,-999.0,46,-99.99,,,0.00,weatherlink.com 1.10,2013-06-18 19:47:00,
2013-06-18 14:02:00,76.1,51.0,30.10,WNW,293,2.0,-999.0,42,-99.99,,,0.00,weatherlink.com 1.10,2013-06-18 20:02:00,
2013-06-18 14:17:00,74.9,51.0,30.09,North,9,0.0,-999.0,43,-99.99,,,0.00,weatherlink.com 1.10,2013-06-18 20:17:00,
2013-06-18 14:32:00,74.6,51.0,30.08,NE,37,0.0,-999.0,44,-99.99,,,0.00,weatherlink.com 1.10,2013-06-18 20:32:00,
2013-06-18 14:47:00,76.0,51.0,30.08,North,360,5.0,-999.0,42,-99.99,,,0.00,weatherlink.com 1.10,2013-06-18 20:47:00,
2013-06-18 15:02:00,74.7,50.0,30.07,NW,310,0.0,-999.0,42,-99.99,,,0.00,weatherlink.com 1.10,2013-06-18 21:02:00,
2013-06-18 15:17:00,76.7,51.0,30.05,NE,34,3.0,-999.0,40,-99.99,,,0.00,weatherlink.com 1.10,2013-06-18 21:17:00,
2013-06-18 15:32:00,77.9,49.0,30.05,North,350,6.0,-999.0,36,-99.99,,,0.00,weatherlink.com 1.10,2013-06-18 21:32:00,
2013-06-18 15:47:00,79.3,47.0,30.03,NNE,17,4.0,-999.0,32,-99.99,,,0.00,weatherlink.com 1.10,2013-06-18 21:47:00,
2013-06-18 16:02:00,79.6,43.0,30.03,ENE,68,2.0,-999.0,27,-99.99,,,0.00,weatherlink.com 1.10,2013-06-18 22:02:00,
2013-06-18 16:17:00,79.7,44.0,30.03,ESE,117,1.0,-999.0,28,-99.99,,,0.00,weatherlink.com 1.10,2013-06-18 22:17:00,
2013-06-18 16:32:00,81.6,47.0,30.01,ESE,109,3.0,-999.0,30,-99.99,,,0.00,weatherlink.com 1.10,2013-06-18 22:32:00,
2013-06-18 16:47:00,82.9,48.0,30.01,SSE,159,6.0,-999.0,29,-99.99,,,0.00,weatherlink.com 1.10,2013-06-18 22:47:00,
2013-06-18 17:02:00,83.2,48.0,30.01,SE,130,7.0,-999.0,29,-99.99,,,0.00,weatherlink.com 1.10,2013-06-18 23:02:00,
2013-06-18 17:17:00,83.8,45.0,30.01,SE,140,6.0,-999.0,26,-99.99,,,0.00,weatherlink.com 1.10,2013-06-18 23:17:00,
2013-06-18 17:32:00,83.5,44.0,30.01,SE,125,7.0,-999.0,25,-99.99,,,0.00,weatherlink.com 1.10,2013-06-18 23:32:00,
2013-06-18 17:47:00,80.7,48.0,30.00,East,101,4.0,-999.0,32,-99.99,,,0.00,weatherlink.com 1.10,2013-06-18 23:47:00,
2013-06-18 18:02:00,78.9,50.0,30.00,East,100,1.0,-999.0,36,-99.99,,,0.00,weatherlink.com 1.10,2013-06-19 00:02:00,
2013-06-18 18:17:00,79.6,50.0,30.00,East,97,4.0,-999.0,36,-99.99,,,0.00,weatherlink.com 1.10,2013-06-19 00:17:00,
2013-06-18 18:32:00,80.6,46.0,30.00,SE,126,10.0,-999.0,30,-99.99,,,0.00,weatherlink.com 1.10,2013-06-19 00:32:00,
2013-06-18 18:47:00,78.7,45.0,30.00,SE,142,12.0,-999.0,30,-99.99,,,0.00,weatherlink.com 1.10,2013-06-19 00:47:00,
2013-06-18 19:02:00,76.7,44.0,30.00,ESE,106,8.0,-999.0,31,-99.99,,,0.00,weatherlink.com 1.10,2013-06-19 01:02:00,
2013-06-18 19:17:00,75.4,45.0,30.00,ESE,109,4.0,-999.0,34,-99.99,,,0.00,weatherlink.com 1.10,2013-06-19 01:17:00,
2013-06-18 19:32:00,74.9,46.0,30.00,SE,132,3.0,-999.0,36,-99.99,,,0.00,weatherlink.com 1.10,2013-06-19 01:32:00,
2013-06-18 19:47:00,74.2,47.0,30.00,SSE,167,2.0,-999.0,38,-99.99,,,0.00,weatherlink.com 1.10,2013-06-19 01:47:00,
2013-06-18 20:02:00,73.9,49.0,30.00,SSE,161,6.0,-999.0,42,-99.99,,,0.00,weatherlink.com 1.10,2013-06-19 02:02:00,
2013-06-18 20:17:00,72.4,53.0,30.01,South,181,1.0,-999.0,51,-99.99,,,0.00,weatherlink.com 1.10,2013-06-19 02:17:00,
2013-06-18 20:32:00,70.0,49.0,30.02,North,5,4.0,-999.0,47,-99.99,,,0.00,weatherlink.com 1.10,2013-06-19 02:32:00,
2013-06-18 20:47:00,69.0,48.0,30.02,NNE,22,4.0,-999.0,47,-99.99,,,0.00,weatherlink.com 1.10,2013-06-19 02:47:00,
2013-06-18 21:02:00,68.8,47.0,30.03,NNE,13,3.0,-999.0,46,-99.99,,,0.00,weatherlink.com 1.10,2013-06-19 03:02:00,
2013-06-18 21:17:00,68.6,47.0,30.03,NW,321,2.0,-999.0,47,-99.99,,,0.00,weatherlink.com 1.10,2013-06-19 03:17:00,
2013-06-18 21:32:00,67.5,48.0,30.03,NNE,13,9.0,-999.0,49,-99.99,,,0.00,weatherlink.com 1.10,2013-06-19 03:32:00,
2013-06-18 21:47:00,66.6,48.0,30.04,North,9,4.0,-999.0,51,-99.99,,,0.00,weatherlink.com 1.10,2013-06-19 03:47:00,
2013-06-18 22:02:00,66.2,48.0,30.04,NNW,334,2.0,-999.0,52,-99.99,,,0.00,weatherlink.com 1.10,2013-06-19 04:02:00,
2013-06-18 22:17:00,65.9,48.0,30.05,NE,38,0.0,-999.0,53,-99.99,,,0.00,weatherlink.com 1.10,2013-06-19 04:17:00,
2013-06-18 22:32:00,64.8,48.0,30.04,NNE,13,3.0,-999.0,55,-99.99,,,0.00,weatherlink.com 1.10,2013-06-19 04:32:00,
2013-06-18 22:47:00,63.6,47.0,30.04,North,355,6.0,-999.0,56,-99.99,,,0.00,weatherlink.com 1.10,2013-06-19 04:47:00,
2013-06-18 23:02:00,63.2,47.0,30.04,North,11,0.0,-999.0,56,-99.99,,,0.00,weatherlink.com 1.10,2013-06-19 05:02:00,
2013-06-18 23:17:00,62.2,47.0,30.05,North,349,1.0,-999.0,58,-99.99,,,0.00,weatherlink.com 1.10,2013-06-19 05:17:00,
2013-06-18 23:32:00,61.7,47.0,30.05,East,92,2.0,-999.0,58,-99.99,,,0.00,weatherlink.com 1.10,2013-06-19 05:32:00,
2013-06-18 23:47:00,60.8,48.0,30.06,NW,304,4.0,-999.0,62,-99.99,,,0.00,weatherlink.com 1.10,2013-06-19 05:47:00,